User: anonymous   Login
Location: Boca do Mato
(22.9085°S, 43.2930°W)
Time: 22:35:41
(UTC+00:00)
Language:

Cosmos 1536 Rocket - Orbit

View from above orbital plane
View from above orbital plane
View from above satellite
View from above satellite

Ground track
Ground track

The orbit data is extracted from the following two-line orbital elements,

1 14700U 84013B   20269.83728405  .00000066  00000-0  51639-5 0  9995
2 14700  82.5347 118.8178 0019387 347.4086  22.8775 14.83298072978387
Epoch (UTC): 25 September 2020 20:05:41
Eccentricity: 0.0019387
inclination: 82.5347°
perigee height: 605 km
apogee height: 632 km
right ascension of ascending node: 118.8178°
argument of perigee: 347.4086°
revolutions per day: 14.83298072
mean anomaly at epoch: 22.8775°
orbit number at epoch: 97838

The dashed part of the orbit path shows where the satellite is in the earth's shadow,  

DLR